Location: Unspecified
(54.1780°N, 0.0000°E)
Time: 01:53:14
(UTC+00:00)

Altair - Pass Details

Date: 26 June 2019
Orbit: 1501 x 1683 km, 47.2° (Epoch: 16 August)

Event Time Altitude Azimuth Distance (km) Brightness Sun altitude
Rises 20:52:57 0° 253° (WSW) 4,719 10.4 -2.4°
Reaches altitude 10° 20:56:01 10° 249° (WSW) 3,759 9.9 -2.7°
Maximum altitude 21:05:18 58° 174° (S) 1,835 7.7 -3.6°
Drops below altitude 10° 21:14:57 10° 99° (E) 3,899 9.2 -4.5°
Sets 21:18:11 0° 96° (E) 4,904 9.7 -4.8°
